[[{"header":{"parameterUnit":"m.s-1","parameterCategory":1,"la1":30.2992,"la2":30.254,"lo1":-89.0895,"lo2":-89.0443,"dy":0.0025,"dx":0.0025,"nx":19,"ny":19,"refTime":"2026-04-16T21:00:00:Z","depth":0,"parameterNumber":2,"parameterNumberName":"U-component_of_WINDS"},"data":[0,0,0,-0.9319,-0.9317,-0.9193,-0.9192,-0.9057,-0.9056,0,0,0,0,0,0,0,0,0,0,0,-0.937,-0.9369,-0.9319,-0.9316,-0.9193,-0.9192,-0.9057,-0.9056,0,0,0,0,0,0,0,0,0,0,0,-0.937,-0.9369,-0.9369,-0.9316,-0.9193,-0.9192,-0.9057,-0.9142,0,0,0,0,0,0,0,0,0,0,-0.9258,-0.9319,-0.937,-0.9369,-0.9315,-0.9193,-0.9192,-0.9146,-0.9137,-0.9123,0,-0.9115,0,-0.9084,-0.9048,-0.9048,0,0,0,-0.9305,-0.9327,-0.9281,-0.9369,-0.9314,-0.9194,-0.9246,-0.9141,-0.9131,-0.9111,-0.9113,-0.9107,-0.9081,-0.9048,-0.9047,-0.9007,-0.9007,0,0,-0.9312,-0.9355,-0.9288,-0.9275,-0.9297,-0.925,-0.9242,-0.9134,-0.9138,-0.9112,-0.9104,-0.9079,-0.9047,-0.9046,-0.9007,-0.9007,0,0,0,-0.9339,-0.936,-0.9316,-0.9281,-0.9258,-0.9246,-0.9237,-0.9143,-0.9125,-0.9102,-0.9078,-0.9046,-0.9045,-0.9006,-0.9007,-0.9067,0,0,0,-0.9343,-0.9376,-0.932,-0.9345,-0.926,-0.9199,-0.9249,-0.9133,-0.9119,-0.9078,-0.9046,-0.9044,-0.9006,-0.9007,-0.9064,-0.9088,0,0,0,-0.9373,-0.9379,-0.9367,-0.9347,-0.9296,-0.92,-0.9175,-0.9129,-0.9105,-0.9048,-0.9044,-0.9005,-0.9006,-0.9062,-0.9084,-0.9091,0,0,0,-0.9417,-0.942,-0.9368,-0.9362,-0.9298,-0.9239,-0.9176,-0.9129,-0.9087,-0.9046,-0.9006,-0.9007,-0.9061,-0.9081,-0.9089,-0.9105,-0.9116,0,0,-0.9445,-0.9425,-0.9418,-0.9368,-0.933,-0.9254,-0.9223,-0.9143,-0.9097,-0.9039,-0.9038,-0.9065,-0.9084,-0.9091,-0.9161,-0.917,0,0,0,-0.9441,-0.9437,-0.9417,-0.9381,-0.9321,-0.9272,-0.9192,-0.9163,-0.9112,-0.9077,-0.9068,-0.9077,-0.908,-0.9086,-0.9093,-0.9093,-0.9011,-0.9011,-0.9011,-0.9542,-0.9485,-0.947,-0.9399,-0.9365,-0.9284,-0.925,-0.9196,-0.9147,-0.9146,-0.9129,-0.9178,-0.9187,-0.9192,-0.9193,-0.9132,-0.9132,-0.9133,-0.9133,-0.9578,-0.9563,-0.9501,-0.9464,-0.9404,-0.9371,-0.9294,-0.9261,-0.9222,-0.9186,-0.9185,-0.9152,-0.9204,-0.9201,-0.9137,-0.9136,-0.9136,-0.9135,-0.9135,-0.9638,-0.9621,-0.9587,-0.953,-0.9492,-0.9418,-0.9385,-0.9331,-0.9279,-0.9278,-0.9254,-0.9253,-0.9246,-0.9271,-0.9271,-0.9271,-0.9271,-0.9271,-0.9271,-0.9714,-0.9674,-0.9653,-0.9592,-0.9562,-0.9516,-0.9436,-0.9404,-0.9356,-0.9319,-0.9318,-0.9271,-0.922,-0.9209,-0.9274,-0.9273,-0.9273,-0.9273,-0.9273,-0.9773,-0.9752,-0.972,-0.969,-0.9614,-0.9581,-0.9513,-0.9455,-0.9421,-0.9406,-0.9358,-0.933,-0.9305,-0.9298,-0.9289,-0.937,-0.937,-0.937,-0.937,-0.9824,-0.9807,-0.9763,-0.972,-0.9671,-0.9607,-0.9573,-0.9511,-0.9443,-0.9419,-0.9399,-0.9382,-0.9378,-0.9355,-0.9347,-0.9338,-0.943,-0.943,-0.943,-0.9858,-0.9834,-0.9815,-0.9751,-0.9688,-0.9635,-0.9602,-0.9554,-0.9473,-0.9431,-0.9399,-0.9397,-0.9368,-0.9361,-0.9319,-0.9309,-0.9289,0,0]},{"header":{"parameterUnit":"m.s-1","parameterCategory":1,"la1":30.2992,"la2":30.254,"lo1":-89.0895,"lo2":-89.0443,"dy":0.0025,"dx":0.0025,"nx":19,"ny":19,"refTime":"2026-04-16T21:00:00:Z","depth":0,"parameterNumber":3,"parameterNumberName":"V-component_of_WINDS"},"data":[0,0,0,4.0604,4.0604,4.0589,4.0589,4.0582,4.0582,0,0,0,0,0,0,0,0,0,0,0,4.0617,4.0617,4.0604,4.0604,4.0589,4.0589,4.0582,4.0582,0,0,0,0,0,0,0,0,0,0,0,4.0617,4.0617,4.0617,4.0604,4.0589,4.0589,4.0582,4.0589,0,0,0,0,0,0,0,0,0,0,4.0601,4.0621,4.0617,4.0617,4.0604,4.0589,4.0589,4.0589,4.0588,4.0594,0,4.0602,0,4.0592,4.0582,4.0582,0,0,0,4.0598,4.0621,4.061,4.0617,4.0604,4.0589,4.0594,4.0588,4.0588,4.0594,4.0602,4.0601,4.0592,4.0582,4.0582,4.0641,4.0641,0,0,4.0599,4.0618,4.0611,4.061,4.0614,4.0595,4.0594,4.0588,4.0598,4.0602,4.0601,4.0592,4.0582,4.0582,4.064,4.0641,0,0,0,4.0605,4.0619,4.0608,4.0611,4.0607,4.0594,4.0593,4.0598,4.0593,4.0601,4.0592,4.0582,4.0582,4.064,4.064,4.0688,0,0,0,4.0606,4.0623,4.0608,4.062,4.0608,4.0602,4.0604,4.0593,4.0592,4.0592,4.0582,4.0582,4.0639,4.064,4.0685,4.0707,0,0,0,4.0615,4.0624,4.0624,4.0621,4.0615,4.0602,4.0596,4.0592,4.0587,4.0582,4.0582,4.0638,4.064,4.0683,4.0703,4.0729,0,0,0,4.063,4.0665,4.0625,4.0661,4.0616,4.0632,4.0596,4.0607,4.0609,4.0582,4.0639,4.064,4.0682,4.07,4.0726,4.0754,4.0768,0,0,4.0685,4.0673,4.0692,4.0656,4.0685,4.0633,4.0668,4.0651,4.0632,4.0639,4.064,4.0686,4.0703,4.0728,4.0836,4.0847,0,0,0,4.0716,4.0731,4.0734,4.0738,4.0727,4.0719,4.0694,4.0688,4.0694,4.064,4.0702,4.0711,4.0725,4.0738,4.0747,4.0758,4.0647,4.0647,4.0647,4.0821,4.0797,4.0828,4.0803,4.0807,4.0783,4.0784,4.0771,4.0744,4.076,4.0761,4.083,4.0845,4.0852,4.0864,4.0774,4.0774,4.0774,4.0774,4.0899,4.0916,4.0882,4.09,4.0875,4.089,4.0869,4.085,4.086,4.0826,4.0837,4.0802,4.0865,4.0874,4.0778,4.0777,4.0777,4.0776,4.0776,4.0965,4.0969,4.0962,4.0967,4.0973,4.0946,4.0958,4.0934,4.0911,4.0923,4.0923,4.0922,4.0918,4.0924,4.0925,4.0925,4.0925,4.0925,4.0925,4.1036,4.1027,4.104,4.1034,4.1034,4.1031,4.1009,4.1009,4.1002,4.0983,4.0983,4.0956,4.0875,4.0856,4.0929,4.0928,4.0928,4.0928,4.0927,4.1124,4.1101,4.1122,4.1123,4.1114,4.1122,4.1092,4.1094,4.109,4.1097,4.1068,4.1012,4.0997,4.099,4.0973,4.1073,4.1073,4.1073,4.1073,4.1179,4.117,4.1187,4.119,4.119,4.1167,4.1192,4.1177,4.1156,4.1153,4.1135,4.1111,4.1105,4.1093,4.1084,4.1068,4.1189,4.1189,4.1189,4.1232,4.1223,4.1249,4.123,4.1222,4.1216,4.124,4.1245,4.1217,4.1194,4.115,4.1145,4.1106,4.1095,4.107,4.1055,4.1026,0,0]}]]